ASTRA 1N

Last updated on Fri Oct 31 2025 00:02:46 GMT+0000 (Coordinated Universal Time)

1 37775U 11041A 25303.25981369 .00000130 00000+0 00000+0 0 9994 2 37775 0.0797 46.1071 0001241 169.7777 295.7476 1.00274265 42222
UTC large
Height (km)
Speed (km/s)
/
Latitude / Longitude
Inclination (degrees)
Orbital Period (minutes)
Azimuth
Elevation
Range (km)
Doppler Factor

Next 0 passes for location: London (51.5072 / 0.1276)

Sorry there are no passes over London.